Weather History for KMDS - June, 2013

Change the Weather History Date:

Sunday, June 16, 2013

  Actual Average Record
Temperature  
Mean Temperature 66 °F -  
Max Temperature 80 °F 76 °F 82 °F (2011)
Min Temperature 53 °F 53 °F 51 °F (2011)
Cooling Degree Days 2    
Growing Degree Days 16 (Base 50)    
Moisture  
Dew Point 51 °F    
Average Humidity 56    
Maximum Humidity 100    
Minimum Humidity 28    
Precipitation  
Precipitation 0.00 in - - ()
Sea Level Pressure  
Sea Level Pressure 29.99 in    
Wind  
Wind Speed 7 mph (West)    
Max Wind Speed 17 mph    
Max Gust Speed 32 mph    
Visibility 10 miles    
Events Rain    
Averages and records for this station are not official NWS values.
T = Trace of Precipitation, MM = Missing Value Source: NWS Daily Summary

Daily Weather History Graph

Daily Weather History Graph

Search for Another Location

Airport or City:

Trip Planner

Search our weather history database for the weather conditions in past years. The results will help you decide how hot, cold, wet, or windy it might be!

Date:

Astronomy

Jun. 16, 2013 Rise Set
Actual Time 5:44 AM CDT 9:13 PM CDT
Civil Twilight 5:08 AM CDT 9:49 PM CDT
Nautical Twilight 4:20 AM CDT 10:37 PM CDT
Astronomical Twilight 3:19 AM CDT 11:38 PM CDT
Moon 1:37 PM CDT (6/16) 1:04 AM CDT (6/16)
Length of Visible Light 16h 41m
Length of Day
15h 28m
Waxing Crescent, 50% of the Moon is Illuminated
Jun 16
Waxing Crescent
Jun 16
First Quarter
Jun 23
Full
Jun 29
Last Quarter
Jul 8
New

Hourly Weather History & Observations

Time (CDT) Temp. Dew Point Humidity Pressure Visibility Wind Dir Wind Speed Gust Speed Precip Events Conditions
12:10 AM 60.8 °F 48.2 °F 63% 29.99 in 10.0 mi WNW 5.8 mph - N/A   Clear
12:30 AM 62.6 °F 46.4 °F 55% 29.99 in 10.0 mi West 6.9 mph - N/A   Clear
12:50 AM 60.8 °F 46.4 °F 59% 29.99 in 10.0 mi West 5.8 mph - N/A   Clear
1:10 AM 59.0 °F 50.0 °F 72% 29.98 in 10.0 mi WNW 3.5 mph - N/A   Clear
1:30 AM 59.0 °F 48.2 °F 67% 29.97 in 10.0 mi West 4.6 mph - N/A   Clear
1:50 AM 59.0 °F 48.2 °F 67% 29.98 in 10.0 mi WNW 4.6 mph - N/A   Clear
2:10 AM 59.0 °F 48.2 °F 67% 29.98 in 10.0 mi WSW 4.6 mph - N/A   Clear
2:30 AM 57.2 °F 50.0 °F 77% 29.98 in 10.0 mi West 3.5 mph - N/A   Clear
2:50 AM 55.4 °F 50.0 °F 82% 29.98 in 10.0 mi NW 8.1 mph - N/A   Clear
3:10 AM 57.2 °F 48.2 °F 72% 30.00 in 10.0 mi West 5.8 mph - N/A   Clear
3:30 AM 55.4 °F 53.6 °F 94% 30.00 in 10.0 mi West 4.6 mph - N/A   Clear
3:50 AM 55.4 °F 50.0 °F 82% 29.98 in 10.0 mi WNW 3.5 mph - N/A   Clear
4:10 AM 57.2 °F 48.2 °F 72% 29.98 in 10.0 mi WSW 5.8 mph - N/A   Clear
4:30 AM 57.2 °F 48.2 °F 72% 29.98 in 10.0 mi West 5.8 mph - N/A   Clear
4:50 AM 55.4 °F 48.2 °F 77% 29.99 in 10.0 mi WNW 4.6 mph - N/A   Clear
5:10 AM 53.6 °F 51.8 °F 94% 29.99 in 10.0 mi SW 3.5 mph - N/A   Clear
5:30 AM 53.6 °F 53.6 °F 100% 29.99 in 10.0 mi West 3.5 mph - N/A   Clear
5:50 AM 55.4 °F 51.8 °F 88% 29.99 in 10.0 mi West 3.5 mph - N/A   Clear
6:10 AM 53.6 °F 53.6 °F 100% 29.99 in 10.0 mi West 4.6 mph - N/A   Clear
6:30 AM 55.4 °F 55.4 °F 100% 30.00 in 10.0 mi SW 4.6 mph - N/A   Clear
6:50 AM 59.0 °F 55.4 °F 88% 30.00 in 10.0 mi WSW 4.6 mph - N/A   Clear
7:10 AM 62.6 °F 53.6 °F 72% 30.00 in 10.0 mi WSW 6.9 mph - N/A   Clear
7:30 AM 64.4 °F 53.6 °F 68% 30.00 in 10.0 mi WNW 4.6 mph - N/A   Clear
7:50 AM 68.0 °F 51.8 °F 56% 30.01 in 10.0 mi West 5.8 mph - N/A   Clear
8:10 AM 69.8 °F 50.0 °F 49% 30.01 in 10.0 mi West 6.9 mph - N/A   Clear
8:30 AM 71.6 °F 51.8 °F 50% 30.01 in 10.0 mi West 10.4 mph - N/A   Clear
8:50 AM 73.4 °F 51.8 °F 47% 30.01 in 10.0 mi West 9.2 mph - N/A   Clear
9:10 AM 73.4 °F 51.8 °F 47% 30.01 in 10.0 mi West 10.4 mph - N/A   Clear
9:30 AM 75.2 °F 51.8 °F 44% 30.00 in 10.0 mi WSW 9.2 mph - N/A   Clear
9:50 AM 75.2 °F 48.2 °F 38% 30.00 in 10.0 mi WSW 8.1 mph - N/A   Clear
10:10 AM 77.0 °F 48.2 °F 36% 29.99 in 10.0 mi WSW 9.2 mph - N/A   Clear
10:30 AM 77.0 °F 46.4 °F 34% 29.99 in 10.0 mi WSW 9.2 mph - N/A   Clear
10:50 AM 77.0 °F 46.4 °F 34% 29.99 in 10.0 mi West 8.1 mph - N/A   Clear
11:10 AM 78.8 °F 46.4 °F 32% 29.98 in 10.0 mi WSW 10.4 mph - N/A   Clear
11:30 AM 80.6 °F 46.4 °F 30% 29.99 in 10.0 mi WSW 11.5 mph - N/A   Clear
11:50 AM 80.6 °F 44.6 °F 28% 29.99 in 10.0 mi WSW 9.2 mph - N/A   Clear
12:10 PM 80.6 °F 44.6 °F 28% 30.00 in 10.0 mi West 11.5 mph - N/A   Clear
12:30 PM 80.6 °F 44.6 °F 28% 30.00 in 10.0 mi West 10.4 mph - N/A   Clear
12:50 PM 80.6 °F 46.4 °F 30% 30.01 in 10.0 mi West 11.5 mph 16.1 mph N/A   Clear
1:10 PM 80.6 °F 46.4 °F 30% 30.01 in 10.0 mi West 11.5 mph 19.6 mph N/A   Clear
1:30 PM 78.8 °F 46.4 °F 32% 30.01 in 10.0 mi West 10.4 mph 18.4 mph N/A   Clear
1:50 PM 78.8 °F 48.2 °F 34% 30.00 in 10.0 mi West 10.4 mph - N/A   Clear
2:10 PM 78.8 °F 48.2 °F 34% 30.00 in 10.0 mi WSW 12.7 mph 20.7 mph N/A   Clear
2:30 PM 77.0 °F 48.2 °F 36% 30.00 in 10.0 mi WSW 17.3 mph 24.2 mph N/A   Clear
2:50 PM 75.2 °F 50.0 °F 41% 29.99 in 10.0 mi West 15.0 mph 32.2 mph N/A   Clear
3:10 PM 73.4 °F 50.0 °F 44% 29.99 in 10.0 mi WNW 11.5 mph 18.4 mph N/A   Clear
3:30 PM 75.2 °F 51.8 °F 44% 29.99 in 10.0 mi WNW 10.4 mph - N/A   Clear
3:50 PM 75.2 °F 50.0 °F 41% 29.97 in 10.0 mi West 9.2 mph - N/A   Clear
4:10 PM 75.2 °F 53.6 °F 47% 29.97 in 10.0 mi West 10.4 mph - N/A   Clear
4:30 PM 77.0 °F 51.8 °F 41% 29.97 in 10.0 mi WSW 10.4 mph - N/A   Clear
4:50 PM 77.0 °F 50.0 °F 39% 29.97 in 10.0 mi WSW 9.2 mph 16.1 mph N/A   Clear
5:10 PM 77.0 °F 53.6 °F 44% 29.96 in 10.0 mi WSW 8.1 mph 17.3 mph N/A   Clear
5:30 PM 75.2 °F 51.8 °F 44% 29.95 in 10.0 mi SSW 8.1 mph - N/A   Clear
5:50 PM 75.2 °F 51.8 °F 44% 29.94 in 10.0 mi WSW 9.2 mph - N/A   Clear
6:10 PM 77.0 °F 53.6 °F 44% 29.94 in 10.0 mi WSW 8.1 mph - N/A   Clear
6:30 PM 77.0 °F 53.6 °F 44% 29.95 in 10.0 mi West 8.1 mph - N/A   Clear
6:50 PM 77.0 °F 53.6 °F 44% 29.94 in 10.0 mi WNW 11.5 mph 17.3 mph N/A   Clear
7:10 PM 77.0 °F 51.8 °F 41% 29.95 in 10.0 mi NW 16.1 mph 19.6 mph N/A   Clear
7:30 PM 75.2 °F 53.6 °F 47% 29.96 in 10.0 mi WNW 12.7 mph - N/A   Clear
7:50 PM 75.2 °F 51.8 °F 44% 29.96 in 10.0 mi West 6.9 mph - N/A   Clear
8:10 PM 75.2 °F 53.6 °F 47% 29.97 in 10.0 mi West 8.1 mph - N/A   Clear
8:30 PM 73.4 °F 53.6 °F 50% 29.97 in 10.0 mi WSW 6.9 mph - N/A   Clear
8:50 PM 71.6 °F 55.4 °F 57% 29.97 in 10.0 mi West 6.9 mph - N/A   Clear
9:10 PM 71.6 °F 55.4 °F 57% 29.97 in 10.0 mi West 5.8 mph - N/A   Clear
9:30 PM 69.8 °F 55.4 °F 60% 29.97 in 10.0 mi WSW 8.1 mph - N/A Rain Light Rain
9:50 PM 68.0 °F 55.4 °F 64% 29.97 in 10.0 mi WSW 5.8 mph - N/A   Clear
10:10 PM 66.2 °F 57.2 °F 73% 29.99 in 10.0 mi SW 8.1 mph - N/A   Clear
10:30 PM 66.2 °F 57.2 °F 73% 29.99 in 10.0 mi WSW 8.1 mph - N/A   Clear
10:50 PM 66.2 °F 57.2 °F 73% 30.00 in 10.0 mi WSW 9.2 mph - N/A   Clear
11:10 PM 66.2 °F 55.4 °F 68% 30.00 in 10.0 mi WSW 9.2 mph - N/A   Clear
11:30 PM 66.2 °F 57.2 °F 73% 30.00 in 10.0 mi WSW 10.4 mph - N/A   Clear
11:50 PM 66.2 °F 57.2 °F 73% 29.99 in 10.0 mi WSW 10.4 mph - N/A   Clear